Home   Weather   Metz   Past weeks

Flag for France Past Weather in Metz, Lorraine, France — Yesterday and Last 2 Weeks

Now
72 °F

Sunny.


Feels Like: 77 °F
Forecast: 55 / 80 °F
Wind: 10 mph from Northeast

Location: Metz-Nancy-Lorraine

Current Time: Aug 30, 2016 at 9:15:26 PM

Latest Report: Aug 30, 2016 at 8:30 PM


Visibility: 10 mi

Pressure: 30.18 "Hg

Humidity: 53%

Dew Point: 54 °F

Location of MetzLocation

Past Weather in Metz — Graph

°F

Metz Temperature Yesterday

Maximum temperature yesterday: 73 °F (at 1:00 PM)
Minimum temperature yesterday: 61 °F (at 7:00 AM)
Average temperature yesterday: 67 °F

High & Low Weather Summary for the Past Weeks

 TemperatureHumidityPressure
High97 °F (Aug 26, 4:30 PM)100% (Aug 19, 3:30 AM)30.39 "Hg (Aug 19, 3:30 AM)
Low54 °F (Aug 22, 1:30 AM)20% (Aug 27, 6:00 PM)29.80 "Hg (Aug 18, 5:30 AM)
Average71 °F67%30.07 "Hg
* Reported Aug 15 8:00 PM — Aug 30 8:00 PM, Metz, Weather by CustomWeather, © 2016

Note: Actual official high and low records may vary slightly from our data, if they occured in-between our weather recording intervals... More about our weather records

Advertising

Metz Weather History for the Previous 24 Hours

Scroll right to see more
 ConditionsComfort  
Time TempWeatherWind HumidityBarometerVisibility
8:00 PM
Tue, Aug 30
73 °FSunny.10 mph50%30.18 "Hg10 mi
7:30 PM75 °FSunny.12 mph47%30.18 "Hg10 mi
7:00 PM77 °FPassing clouds.13 mph44%30.18 "HgN/A
6:30 PM77 °FSunny.12 mph44%30.18 "Hg10 mi
6:00 PM75 °FSunny.9 mph47%30.18 "Hg10 mi
5:30 PM79 °FPassing clouds.9 mph39%30.18 "HgN/A
5:00 PM77 °FPassing clouds.7 mph44%30.18 "HgN/A
4:30 PM77 °FPassing clouds.12 mph44%30.18 "HgN/A
4:00 PM77 °FPassing clouds.10 mph42%30.21 "HgN/A
3:30 PM75 °FPassing clouds.12 mph47%30.21 "HgN/A
3:00 PM77 °FPartly sunny.10 mph47%30.21 "HgN/A
2:30 PM75 °FPassing clouds.12 mph47%30.24 "HgN/A
2:00 PM73 °FScattered clouds.12 mph53%30.24 "HgN/A
1:30 PM75 °FPartly sunny.12 mph50%30.24 "HgN/A
1:00 PM73 °FScattered clouds.12 mph53%30.24 "HgN/A
12:30 PM73 °FPassing clouds.10 mph53%30.27 "HgN/A
12:00 PM72 °FPassing clouds.9 mph57%30.27 "HgN/A
11:30 AM70 °FPassing clouds.12 mph64%30.27 "HgN/A
11:00 AM70 °FPassing clouds.10 mph64%30.27 "HgN/A
10:30 AM68 °FPassing clouds.10 mph69%30.27 "HgN/A
10:00 AM66 °FSunny.12 mph73%30.27 "Hg10 mi
9:30 AM64 °FSunny.12 mph78%30.27 "Hg10 mi
9:00 AM63 °FSunny.10 mph83%30.27 "Hg10 mi
8:30 AM59 °FSunny.8 mph94%30.27 "Hg10 mi
8:00 AM57 °FSunny.5 mph94%30.24 "Hg10 mi
7:30 AM55 °FClear.5 mph94%30.24 "Hg10 mi
7:00 AM55 °FClear.5 mph94%30.24 "Hg10 mi
6:30 AM55 °FClear.5 mph94%30.24 "Hg10 mi
6:00 AM57 °FClear.5 mph88%30.24 "Hg10 mi
5:30 AM55 °FClear.5 mph94%30.24 "Hg10 mi
5:00 AM57 °FClear.3 mph88%30.24 "Hg10 mi
4:30 AM57 °FClear.3 mph88%30.24 "Hg10 mi
4:00 AM57 °FClear.5 mph88%30.24 "Hg10 mi
3:30 AM57 °FClear.3 mph88%30.24 "Hg10 mi
3:00 AM59 °FClear.3 mph88%30.24 "Hg10 mi
2:30 AM59 °FClear.3 mph88%30.24 "Hg10 mi
2:00 AM59 °FClear.3 mph82%30.24 "Hg10 mi
1:30 AM59 °FClear.3 mph82%30.24 "Hg10 mi
1:00 AM61 °FClear.3 mph83%30.24 "Hg10 mi
12:30 AM61 °FClear.2 mph83%30.24 "Hg10 mi
12:00 AM63 °FClear.2 mph77%30.21 "Hg10 mi
11:30 PM
Mon, Aug 29
61 °FClear.6 mph83%30.21 "Hg10 mi
11:00 PM64 °FClear.2 mph73%30.21 "Hg10 mi
10:30 PM64 °FPassing clouds.1 mph73%30.21 "HgN/A
10:00 PM64 °FPassing clouds.2 mph73%30.21 "HgN/A
9:30 PM66 °FClear.3 mph68%30.21 "Hg10 mi
9:00 PM66 °FSunny.3 mph68%30.18 "Hg10 mi
Weather by CustomWeather, © 2016

See weather overviewHow to use our weather pages